Kuiper-00108

operational
NORAD ID: 65146 Int'l Des: 2025-171 Owner: KUIP Country: US Constellation: kuiper
LEOCIRCULAR

Über Kuiper-00108

Beschreibung wird geladen...

Live-Position

3D-Globus wird geladen...

Nächste Überflüge

Höhenverlauf

Altitude vs Time

uPlot chart will show altitude changes over time

Zweizeiliger Elementsatz

1 65146U 25171Q 25304.00002315 -.00676390 00000-0 -36153-1 0 9995
2 65146 51.8844 17.8388 0005720 51.9925 287.6120 15.16926590 5199
Epoch: 31. Okt. 2025 • Age: 6 hours

Aktueller Status

Höhe 532.5 km
Geschwindigkeit 7.60 km/s
Subsatellitenpunkt -43.78°S, 163.75°W
Startdatum 11. Aug. 2025
Alter 0.2 years
Typ internet

Technische Details

Klassifizierung Payload
Masse 490.00 kg
Trockenmasse 490.00 kg
Gesamtmasse 490.00 kg
Länge 1.80 m
Durchmesser 0.70 m
Spannweite 5.00 m
Form Box + 2 pan
Hersteller KUIP
Bus-Typ Kuiper
Phasenstatus In Orbit
Besitzer/Staat KUIP/US

Große Konstellationen

Loading constellations...